Regional Weather Roundup
Issued by NWS Upton, NY

Current Version | Previous Version | Graphics & Text | Print | Product List | Glossary Off
Versions: 1 2 3 4 5 6 7 8 9 10 11 12 13 14 15 16 17 18 19 20 21 22 23 24 25 26 27

000
ASUS41 KOKX 250509
RWROKX

REGIONAL WEATHER ROUNDUP
NATIONAL WEATHER SERVICE NEW YORK NY
100 AM EDT TUE APR 25 2017

NOTE: "FAIR" INDICATES FEW OR NO CLOUDS BELOW 12,000 FEET WITH NO
SIGNIFICANT WEATHER AND/OR OBSTRUCTIONS TO VISIBILITY.

NYZ071-072-176-178-NJZ106-104-250600-
NEW YORK CITY METRO AREA

CITY           SKY/WX    TMP DP  RH WIND       PRES   REMARKS
Central Park   CLOUDY    51  45  79 E6        30.14F
Wall St Helipt CLOUDY    53  44  71 NE14      30.12F
Bronx Bot Gard   N/A     48  45  87 N3        30.14F
LaGuardia APRT CLOUDY    51  46  83 NE13      30.12F
Kennedy INTL   LGT RAIN  53  50  89 E12       30.12F
Breezy Point     N/A     50 N/A N/A E13G18      N/A
Newark/Liberty CLOUDY    54  42  64 NE9       30.11F
Teterboro      CLOUDY    52  44  74 E8        30.12F
$$

NYZ177-179-078>081-250600-
LONG ISLAND NEW YORK

CITY           SKY/WX    TMP DP  RH WIND       PRES   REMARKS
Jones Beach      N/A     50 N/A N/A E16         N/A
Matinecock PT  NOT AVBL
Farmingdale    CLOUDY    52  49  89 E10       30.13S
MacArthur/ISP  CLOUDY    52  50  93 E9        30.13S
Shirley        LGT RAIN  51  49  92 VRB6      30.14F
Mt Sinai Harb    N/A    N/A N/A N/A E6          N/A
Westhampton    CLOUDY    50  47  89 E7        30.16S
East Hampton   DRIZZLE   49  46  90 E8        30.15S
Montauk          N/A     49  46  90 E7        30.17F
$$

NYZ052-065-067-250600-
HUDSON VALLEY

CITY           SKY/WX    TMP DP  RH WIND       PRES   REMARKS
White Plains   DRIZZLE   50  43  77 E6        30.12F
Larchmont Harb   N/A     48 N/A N/A NE17        N/A
Croton O-T Hud   N/A     54 N/A N/A CALM        N/A
Newburgh       MOCLDY    54  34  47 SE6       30.14F
Montgomery     CLOUDY    55  34  45 E5        30.13R
Poughkeepsie   CLOUDY    55  34  45 SE5       30.13S
Albany         MOCLDY    48  31  51 N6        30.17F
$$

NJZ001-105-106-008-010-013-015-019>022-104-250600-
NEW JERSEY

CITY           SKY/WX    TMP DP  RH WIND       PRES   REMARKS
Newark/Liberty CLOUDY    54  42  64 NE9       30.11F
Teterboro      CLOUDY    52  44  74 E8        30.12F
Caldwell       CLOUDY    53  40  61 E9        30.12F
Somerville     CLOUDY    54  39  57 E5        30.08F
Linden         MOCLDY    55  42  60 E7        30.11F
Sussex         CLOUDY    55  37  50 NE6       30.12F
Andover          N/A     54  34  46 CALM      30.10F
Trenton        CLOUDY    51  46  83 E8        30.07F
Millville      CLOUDY    53  53 100 E14       30.00F
Atlantic City  CLOUDY    53  50  89 NE15      30.02F
Wrightstown    CLOUDY    51  47  89 NE10      30.03F
Toms River     LGT RAIN  51  50  96 NE12      30.07F
Belmar         LGT RAIN  49  48  97 NE13      30.09F
$$

PAZ047>061-062-071-250600-
EASTERN PENNSYLVANIA

CITY           SKY/WX    TMP DP  RH WIND       PRES   REMARKS
Philadelphia   CLOUDY    52  46  80 NE13      30.04F
Allentown      CLOUDY    55  38  52 E12       30.08F
Scranton       CLOUDY    57  33  40 NE5       30.05F
$$

CTZ002-004>006-009-010-012-RIZ004-006-007-MAZ004-011-015-250600-
SOUTHERN NEW ENGLAND
 IN CT

CITY           SKY/WX    TMP DP  RH WIND       PRES   REMARKS
Bradley INTL   CLOUDY    55  36  48 CALM      30.18R
Hartford       CLOUDY    52  42  69 CALM      30.17S
Danbury        CLOUDY    50  39  66 E6        30.16S
Wtrbury/Oxford CLOUDY    50  34  53 E5        30.16S
Bridgeport     CLOUDY    51  44  77 E12       30.16S
Meriden        CLOUDY    54  40  59 CALM      30.17S
New Haven      CLOUDY    51  45  79 E9        30.15F
Chester        MOCLDY    50  45  81 E6        30.16S
Groton         CLOUDY    51  47  86 E8        30.16F
Wilimantic     CLOUDY    54  39  57 CALM      30.18S

 IN RI

CITY           SKY/WX    TMP DP  RH WIND       PRES   REMARKS
Providence     CLOUDY    50  47  89 CALM      30.20S
Block Island   CLOUDY    48  46  93 E10       30.18S
Westerly       CLOUDY    51  48  89 E8        30.18F
 IN MA

CITY           SKY/WX    TMP DP  RH WIND       PRES   REMARKS
Boston         CLOUDY    50  44  80 E7        30.22R
Worcester      CLOUDY    51  36  56 E5        30.19S
Westfield      CLOUDY    52  44  74 CALM      30.17S
Provincetown   CLOUDY    49  45  86 E5        30.23R
Nantucket      CLOUDY    48  44  86 E13       30.20F
$$

ANZ330-335-338-340-345-350-353-355-250600-
COASTAL MARINE OBSERVATIONS


STATION/POSITION TIME  SKY/WX   TEMP    WIND        PRES    VSBY  WAVE
                                AIR SEA DIR/SP/G                  HT/PER
                 (UTC)          (F)     (DEG/KT/KT) (MB)    (MI)  (FT/S)
NY HARB ENTRANCE 0350            49 50   70/ 14/ 17 1019.7          4/ 6
20 S FIRE ISLAND 0450            48 48   60/ 14/ 17 1018.6          4/ 6
GREAT SOUTH BAY  0430            52 56   70/ 16/ 19   N/A
23 SSW MONTAUK P 0350            47 46              1021.2          3/10
15 E BARNEGAT LI 0430               50                N/A           5/ 5
HUDSON CANYON    0350            49 47   80/ 14/ 17 1018.0          5/ 6
KINGS POINT      0448            49 47   80/  2/  5 1020.0
EXECUTION ROCKS  NOT AVBL
CENTRAL LI SOUND 0445            46      70/ 10/ 12   N/A           1
EASTERN LI SOUND NOT AVBL
ROBBINS REEF     0448            52      50/ 12/ 13 1019.8
$$


>>>>>>>>>>>>>>>>>>>>>>>>>>>> KEY <<<<<<<<<<<<<<<<<<<<<<<<<<<
>                                                          <
>     SKY/WX - Sky Condition/Present Weather               <
>     TMP    - Temperature in Fahrenheit                   <
>     DP     - Dew Point in Fahrenheit                     <
>     RH     - Relative Humidity in Percent                <
>     WIND   - Direction (from) and Speed in MPH           <
>     PRES   - Mean Sea Level Pressure (inches of Hg)      <
>     WCI    - Wind Chill Index                            <
>     VSB    - VISIBILITY IN MILES                         <
>     HX     - HEAT INDEX                                  <
>     TC     - TEMPERATURE IN CELSIUS                      <
>     VRB    - VARIABLE WIND DIRECTION                     <
>                                                          <
>>>>>>>>>>>>>>>>>>>>>>>>>>>> KEY <<<<<<<<<<<<<<<<<<<<<<<<<<<




USA.gov is the U.S. government's official web portal to all federal, state and local government web resources and services.